• Join FlightAware (Why Join?)
  • Login
  • US Flag GB Flag 
06:38 EDT


 

Airport Tracker/Info


-or-


 

Live Flight TrackerFlight Track Log ✈ FLG4222 ✈ 05-Oct-2013 ✈ KBGM - KDTW

Flight Track Log - Related Links

Times and Time Zones

All times are in EDT time to prevent confusion due to time zone crossing. See the FLG4222 flight status page for this flight to view local times or setup timezone preferences in your user account.

Time Position Orientation Groundspeed Altitude Reporting Facility
EDT Latitude Longitude Course Direction KTS MPH feet Rate Location/Type
11:49 42.2361 -76.0194 292° West 171 197 3,200  Level New York Center
11:50 42.2561 -76.0856 292° West 219 252 5,200 2,220 Climbing New York Center
11:51 42.2833 -76.1775 292° West 247 284 7,700 1,380 Climbing New York Center
11:52 42.3028 -76.2492 290° West 258 297 8,000 1,260 Climbing New York Center
11:53 42.3317 -76.3469 292° West 258 297 10,300 1,740 Climbing New York Center
11:54 42.3506 -76.4167 290° West 260 299 11,000 960 Climbing Cleveland Center
11:55 42.3797 -76.5231 290° West 296 341 12,000 1,140 Climbing Cleveland Center
11:56 42.4133 -76.6428 291° West 338 389 13,400 1,440 Climbing Cleveland Center
11:57 42.4453 -76.7622 290° West 340 391 15,000 1,560 Climbing Cleveland Center
11:58 42.4758 -76.8828 289° West 339 390 16,600 1,320 Climbing Cleveland Center
11:59 42.5086 -77.0025 290° West 340 391 17,800 1,140 Climbing Cleveland Center
12:00 42.5481 -77.1533 290° West 353 406 19,000 1,020 Climbing Cleveland Center
12:01 42.5814 -77.2811 290° West 359 413 19,900 900 Climbing Cleveland Center
12:02 42.6153 -77.4081 290° West 360 414 20,900 780 Climbing Cleveland Center
12:03 42.6469 -77.5300 289° West 364 419 21,600 660 Climbing Cleveland Center
12:04 42.6814 -77.6619 290° West 370 426 22,300 780 Climbing Cleveland Center
12:05 42.7225 -77.8208 289° West 381 438 23,200 780 Climbing Cleveland Center
12:06 42.7564 -77.9556 289° West 378 435 23,900 600 Climbing Cleveland Center
12:07 42.7772 -78.0922 282° West 377 434 24,500 480 Climbing Cleveland Center
12:08 42.7764 -78.2356 270° West 379 436 25,000 480 Climbing Cleveland Center
12:09 42.7736 -78.3786 269° West 382 440 25,500 480 Climbing Cleveland Center
12:10 42.7725 -78.5219 269° West 379 436 26,000 480 Climbing Cleveland Center
12:11 42.7689 -78.6658 268° West 382 440 26,500 480 Climbing Cleveland Center
12:12 42.7672 -78.8078 269° West 377 434 27,000 480 Climbing Cleveland Center
12:13 42.7653 -78.9767 269° West 373 429 27,600 480 Climbing Cleveland Center
12:14 42.7603 -79.1181 267° West 375 432 28,000 180 Climbing Cleveland Center
12:15 42.7572 -79.2617 268° West 380 437 28,000  Level Cleveland Center
12:16 42.7542 -79.4094 268° West 390 449 28,000  Level Cleveland Center
12:17 42.7494 -79.5581 268° West 396 456 28,000  Level Cleveland Center
12:18 42.7453 -79.7097 268° West 400 460 28,000  Level Cleveland Center
12:19 42.7408 -79.8611 268° West 400 460 28,000  Level Cleveland Center
12:20 42.7361 -80.0172 268° West 406 467 28,000  Level Cleveland Center
12:21 42.7308 -80.1992 268° West 409 471 28,000  Level Cleveland Center
12:22 42.7239 -80.3506 266° West 401 461 28,000  Level Cleveland Center
12:23 42.7189 -80.5061 268° West 405 466 28,000  Level Cleveland Center
12:24 42.7139 -80.6611 268° West 406 467 28,000 -480 Level Cleveland Center
12:25 42.7106 -80.8192 268° West 413 475 27,100 -960 Descending Cleveland Center
12:26 42.6978 -80.9628 263° West 390 449 26,100 -1,020 Descending Cleveland Center
12:27 42.6819 -81.1044 261° West 379 436 25,100 -1,020 Descending Cleveland Center
12:28 42.6650 -81.2447 261° West 376 433 24,100 -540 Descending Cleveland Center
12:29 42.6489 -81.3889 261° West 382 440 24,000 -60 Descending Cleveland Center
12:30 42.6314 -81.5367 261° West 390 449 24,000  Level Cleveland Center
12:32 42.6108 -81.7139 261° West 403 464 24,000 -120 Level Cleveland Center
12:33 42.5928 -81.8697 261° West 411 473 23,800 -1,320 Descending Cleveland Center
12:34 42.5736 -82.0189 260° West 405 466 21,300 -2,460 Descending Cleveland Center
12:35 42.5572 -82.1572 261° West 381 438 18,800 -2,400 Descending Cleveland Center
12:36 42.5397 -82.2994 261° West 381 438 16,400 -2,640 Descending Cleveland Center
12:36 42.5381 -82.3211 264° West 380 437 16,000 -2,460 Descending Cleveland Center
12:37 42.5222 -82.4375 260° West 377 434 13,900 -2,580 Descending Cleveland Center
12:37 42.5158 -82.4911 261° West 374 430 12,900 -2,460 Descending Cleveland Center
12:38 42.4994 -82.5733 255° West 372 428 11,400 -2,400 Descending Cleveland Center
12:38 42.4817 -82.6222 244° Southwest 375 432 10,500 -1,140 Descending Cleveland Center
12:39 42.4472 -82.7225 245° Southwest 285 328 10,100 -1,140 Descending Cleveland Center
12:40 42.4078 -82.8008 236° Southwest 288 331 8,500 -1,800 Descending Cleveland Center
12:40 42.4006 -82.8181 240° Southwest 271 312 8,100 -1,500 Descending Cleveland Center
12:41 42.3650 -82.8808 233° Southwest 269 310 7,000 -1,080 Descending Cleveland Center
12:41 42.3569 -82.8969 236° Southwest 254 292 7,000  Level Cleveland Center
12:42 42.3550 -82.9606 268° West 232 267 7,000  Level Cleveland Center
12:42 42.3608 -82.9850 288° West 223 257 7,000  Level Cleveland Center
12:43 42.3856 -83.0322 305° West 237 273 7,000  Level Cleveland Center
12:43 42.4056 -83.0336 357° North 257 296 7,000  Level Cleveland Center
12:44 42.4544 -83.0142 16° North 255 293 7,000  Level Cleveland Center
12:44 42.4744 -83.0089 11° North 238 274 7,000  Level Cleveland Center
12:45 42.5050 -83.0319 331° Northwest 224 258 7,000  Level Cleveland Center
12:45 42.5192 -83.0547 310° West 215 247 7,000 -240 Level Cleveland Center
12:46 42.5106 -83.1017 256° West 218 251 6,800 -480 Descending Cleveland Center
12:46 42.5036 -83.1206 244° Southwest 211 243 6,600 -840 Descending Cleveland Center
12:47 42.4575 -83.1558 209° Southwest 206 237 6,000 -720 Descending Cleveland Center
12:47 42.4547 -83.1589 219° Southwest 201 231 5,900 -1,200 Descending Cleveland Center
12:48 42.4050 -83.1953 208° Southwest 211 243 4,800 -1,200 Descending Cleveland Center
12:48 42.4014 -83.1997 222° Southwest 214 246 4,700 -1,080 Descending Cleveland Center
12:49 42.3547 -83.2331 208° Southwest 210 242 3,700 -1,020 Descending Cleveland Center
12:50 42.3103 -83.2661 209° Southwest 195 224 2,700 -960 Descending Cleveland Center
12:51 42.2681 -83.2969 208° Southwest 136 157 1,800 -780 Descending Cleveland Center
12:51 42.2711 -83.2939 36° Northeast 169 194 1,900 -720 Climbing Cleveland Center
12:52 42.2361 -83.3189 208° Southwest 149 171 1,100 -840 Descending Cleveland Center
12:52 42.2300 -83.3283 229° Southwest 144 166 1,000 -120 Descending Cleveland Center
12:53 42.2014 -83.3453 204° Southwest 148 170 1,000  Level Cleveland Center